Terminal Aerodrome Forecast
Issued by NWS Tampa Bay Area, FL

Home | Current Version | Previous Version | Text Only | Print | Product List | Glossary On
Versions: 1 2 3 4 5 6 7 8 9 10 11 12 13 14 15 16 17 18 19 20 21 22 23 24 25
000
FTUS42 KTBW 280303 AAA
TAFTPA
TAF AMD
KTPA 280303Z 2803/2824 09005KT P6SM SCT100
     FM280900 VRB04KT P6SM FEW015 SCT100
     FM281400 09006KT P6SM SCT020 SCT100
     FM281700 24007KT P6SM SCT035 SCT100
     FM282000 28008KT P6SM SCT050=

USA.gov is the U.S. government's official web portal to all federal, state and local government web resources and services.